EDT,Max TemperatureF,Mean TemperatureF,Min TemperatureF,Max Dew PointF,MeanDew PointF,Min DewpointF,Max Humidity, Mean Humidity, Min Humidity, Max Sea Level PressureIn, Mean Sea Level PressureIn, Min Sea Level PressureIn, Max VisibilityMiles, Mean VisibilityMiles, Min VisibilityMiles, Max Wind SpeedMPH, Mean Wind SpeedMPH, Max Gust SpeedMPH,PrecipitationIn, CloudCover, Events, WindDirDegrees
2014-4-1,66,47,28,34,26,20,69,44,18,30.15,30.01,29.83,10,10,10,17,8,28,T,1,,171
2014-4-2,55,44,33,29,25,19,70,47,24,30.17,30.09,29.99,10,10,10,17,8,23,0.00,1,,297
2014-4-3,52,41,30,37,26,17,92,59,26,30.17,30.06,29.91,10,9,6,15,7,21,0.24,5,Rain,89
2014-4-4,47,43,38,44,40,32,92,81,70,29.89,29.70,29.55,10,5,2,23,12,32,0.62,8,Rain,156
2014-4-5,38,31,23,32,24,20,78,69,59,30.19,29.88,29.69,10,8,1,24,12,36,0.03,7,Rain-Snow,273
2014-4-6,53,36,19,25,18,14,91,58,24,30.23,30.18,30.10,10,10,5,10,3,15,0.00,0,,90
2014-4-7,43,40,36,39,32,17,92,66,39,30.08,29.77,29.47,10,6,2,22,11,31,0.77,6,Rain-Thunderstorm,133
2014-4-8,48,42,35,43,35,27,92,71,49,29.75,29.50,29.31,10,8,2,23,11,32,0.19,6,Rain-Snow,260
2014-4-9,49,39,28,31,24,16,85,58,31,30.04,29.87,29.73,10,10,5,28,8,32,0.00,1,,307
2014-4-10,64,45,25,31,25,19,75,49,23,30.07,29.95,29.83,10,10,10,23,12,35,T,2,,202
2014-4-11,52,44,35,46,39,34,92,82,71,30.11,30.00,29.90,10,7,0,20,3,24,0.40,7,Fog-Rain,267
2014-4-12,65,51,36,40,34,29,92,60,27,30.22,30.13,30.00,10,5,0,16,5,21,0.00,3,Fog,211
2014-4-13,77,67,57,46,42,30,55,42,29,29.99,29.91,29.84,10,10,10,22,10,34,T,3,,189
2014-4-14,73,65,57,54,50,42,86,62,38,29.83,29.72,29.65,10,9,2,30,12,46,0.26,5,Rain,199
2014-4-15,59,40,20,52,29,12,89,80,71,30.13,29.73,29.47,10,6,0,25,15,31,0.41,8,Fog-Rain-Snow,295
2014-4-16,39,27,15,14,10,7,67,50,32,30.51,30.31,30.06,10,9,2,20,7,24,T,2,Snow,348
2014-4-17,53,40,27,22,17,12,55,42,28,30.55,30.49,30.43,10,10,10,17,10,26,0.00,0,,147
2014-4-18,63,48,33,37,28,23,82,53,23,30.45,30.32,30.20,10,10,10,18,9,23,0.00,1,,183
2014-4-19,57,45,32,38,26,18,89,56,22,30.38,30.33,30.26,10,9,6,15,6,19,0.00,1,,21
2014-4-20,67,47,27,26,21,15,75,45,14,30.41,30.32,30.20,10,10,10,14,6,22,0.00,0,,150
2014-4-21,75,57,39,37,28,24,64,40,15,30.18,30.00,29.79,10,10,10,16,5,24,0.00,0,,185
2014-4-22,61,48,34,51,43,29,93,65,36,29.76,29.65,29.58,10,8,2,23,11,32,0.17,7,Rain,264
2014-4-23,43,37,30,31,29,21,89,69,48,30.06,29.84,29.70,10,6,1,26,14,33,T,7,Snow,301
2014-4-24,55,41,26,18,14,10,68,43,18,30.15,30.08,30.01,10,10,10,16,5,20,0.00,0,,344
2014-4-25,63,50,37,44,29,15,86,55,23,30.00,29.77,29.65,10,8,2,23,12,31,0.08,6,Rain,183
2014-4-26,57,48,38,39,34,27,92,69,46,29.99,29.84,29.74,10,8,2,30,13,41,0.00,7,,278
2014-4-27,55,45,34,32,27,26,76,56,35,30.18,30.08,29.99,10,10,10,14,7,22,0.00,4,,360
2014-4-28,58,45,31,33,28,26,78,54,30,30.14,30.03,29.93,10,10,10,20,9,26,T,3,Rain,117
2014-4-29,48,45,42,41,38,36,89,75,61,30.12,29.99,29.91,10,9,2,28,18,43,0.14,8,Rain,146
2014-4-30,50,46,41,47,43,36,93,85,76,30.12,29.94,29.81,10,8,2,24,12,34,0.95,8,Rain,146